Volver al catálogo

STARLINK-36974

ActivoComunicacionesVLEO
NORAD 68272·PAYLOAD·🇺🇸 United States

Lanzado Mar 19, 2026 desde Vandenberg Space Force Base

Loading…

Próximos Pases (próximas 24 horas)

TLE

ActualizadoSource: CelesTrak SupGP

Época: Sep 14, 2026, 21:15 UTC

1 68272C 26055L   26257.88590278 -.00037176  00000+0 -10982-2 0  2576
2 68272  53.1582 158.3122 0001282  79.6545  99.7324 15.34414865    18

Sigue STARLINK-36974 en tiempo real con AllMySat

Download on the App Store